Regional Weather Roundup
Issued by NWS Boston, MA

Home | Current Version | Previous Version | Text Only | Print | Product List | Glossary On
Versions: 1 2 3 4 5 6 7 8 9 10 11 12 13 14 15 16 17 18 19 20 21 22 23 24 25 26 27 28 29 30 31 32 33 34 35 36 37 38 39 40 41 42 43 44 45 46 47 48 49 50
830
ASUS41 KBOX 171010
RWRBOX

REGIONAL WEATHER ROUNDUP
NATIONAL WEATHER SERVICE TAUNTON MA
600 AM EDT THU AUG 17 2017

NOTE:  "FAIR" INDICATES FEW OR NO CLOUDS BELOW 12,000 FEET WITH NO
SIGNIFICANT WEATHER AND/OR OBSTRUCTIONS TO VISIBILITY.

MAZALL-171100-
EASTERN MASSACHUSETTS

CITY           SKY/WX    TMP DP  RH WIND       PRES   REMARKS
BOSTON         PTCLDY    63  48  58 NW5       30.05R
BEVERLY        PTCLDY    53  50  89 CALM      30.04R
LAWRENCE       CLEAR     57  50  77 S3        30.06R
BEDFORD        CLEAR     51  47  86 CALM      30.04R
BLUE HILL        N/A     58  46  64 NW8       30.04S
NORWOOD        CLEAR     50  48  93 CALM      30.04S
MARSHFIELD     CLEAR     55  50  82 CALM      30.04R
PLYMOUTH       PTCLDY    59  46  62 N3        30.04S
TAUNTON        CLEAR     49  47  93 CALM      30.04R FOG
NEW BEDFORD    PTCLDY    56  50  80 CALM      30.03R
$$

MAZALL-171100-
CAPE COD AND THE ISLANDS

CITY           SKY/WX    TMP DP  RH WIND       PRES   REMARKS
FALMOUTH       CLEAR     59  50  72 CALM      30.04S
HYANNIS        CLEAR     65  53  65 N5        30.02R
CHATHAM        PTCLDY    61  57  87 CALM      30.04R
PROVINCETOWN   CLEAR     64  57  78 N3        30.04R
NANTUCKET      CLEAR     64  58  80 N10       30.02R
MARTHAS VNYRD  PTCLDY    62  49  62 N9        30.03R
$$

MAZALL-171100-
CENTRAL AND WESTERN MASSACHUSETTS

CITY           SKY/WX    TMP DP  RH WIND       PRES   REMARKS
WORCESTER      CLEAR     57  44  62 NW5       30.07R
FITCHBURG      CLOUDY    53  51  93 N3        30.06S
ORANGE         FOG       51  51 100 CALM      30.07R VSB 1/4
SPRINGFIELD    PTCLDY    52  51  95 CALM      30.06R
WESTFIELD      FOG       52  52 100 CALM      30.07R VSB 3/4
NORTH ADAMS    PTCLDY    49  48  97 SE3       30.09R
PITTSFIELD     FOG       49  48  97 CALM      30.09R VSB 1/2
$$

RIZALL-171100-
RHODE ISLAND

CITY           SKY/WX    TMP DP  RH WIND       PRES   REMARKS
PROVIDENCE     PTCLDY    62  52  69 NW6       30.05R
NEWPORT        CLEAR     63  51  65 N7        30.04R
BLOCK ISLAND   MOCLDY    66  55  67 NE6       30.05R
WESTERLY       PTCLDY    63  53  70 N5        30.05R
$$

CTZALL-171100-
CONNECTICUT

CITY           SKY/WX    TMP DP  RH WIND       PRES   REMARKS
BRADLEY INTL   PTCLDY    57  55  93 CALM      30.06R
HARTFORD       CLEAR     61  58  90 NE3       30.06R
BRIDGEPORT     PTCLDY    66  58  75 N8        30.05R
DANBURY        CLEAR     57  56  96 CALM      30.08R
GROTON         CLOUDY    64  54  69 N7        30.04R
NEW HAVEN      PTCLDY    62  56  80 N5        30.05R
CHESTER        NOT AVBL
MERIDEN        CLEAR     59  56  89 CALM      30.06R
WILLIMANTIC    CLEAR     57  56  96 CALM      30.07R
OXFORD         CLEAR     58  54  86 CALM      30.07R
$$

MEZ002-015-021-024-NHZ003-005-008-011-012-014-VTZ005-008-171100-
NORTHERN NEW ENGLAND

CITY           SKY/WX    TMP DP  RH WIND       PRES   REMARKS
PORTLAND ME    PTCLDY    52  46  80 W5        30.01R
BANGOR ME      PTCLDY    52  46  80 W5        29.95R
CONCORD NH     CLEAR     47  44  90 CALM      30.05R
MANCHESTER NH  MOCLDY    55  47  74 CALM      30.03R
NASHUA NH      CLOUDY    50  49  96 CALM      30.05R
PORTSMOUTH NH  PTCLDY    55  48  77 W5        30.02R
JAFFREY NH     CLEAR     49  49 100 CALM      30.07R
KEENE NH         N/A    N/A N/A N/A MISG        N/A
BURLINGTON VT  PTCLDY    52  50  93 E3        30.05R
MT. WASHINGTON FOG       37  37 100 NW61G68     N/A  VSB 1/16WCI  21
$$

NYZ052-076-171100-
EASTERN NEW YORK

CITY           SKY/WX    TMP DP  RH WIND       PRES   REMARKS
ALBANY         PTCLDY    53  49  86 CALM      30.09R
NEW YORK CITY  MOCLDY    71  57  61 NE8       30.03R
$$

ANZALL-171100-
MARINE OBSERVATIONS

STATION/POSITION TIME  TEMP    WIND        PRES    VSBY  WAVE
                       AIR SEA DIR/SP/G                  HT/PER
                 (UTC) (F)     (DEG/KT/KT) (MB)    (MI)  (FT/S)
BOSTON BUOY      0950   65 67  310/  8/  8 1016.6R         2/13
BUZZARDS BAY     0900   67      10/ 14/ 16 1017.1R
NANTUCKET SOUND  0850   69 71   10/ 14/ 16 1016.1          2/ 3
MASS BAY-STELLWA 0904   64 68  330/ 10/ 12 1015.9F         1/ 3
ISLE OF SHOALS   0900   60     260/  8/  8 1016.2F
S OF BLOCK IS    0943      67                N/A           4/ 9
$$

......................KEY.........................
  SKY/WX - SKY CONDITION/PRESENT WEATHER
  TMP    - TEMPERATURE IN FAHRENHEIT
  DWPT   - DEWPOINT IN FAHRENHEIT
  RH     - RELATIVE HUMIDITY IN PERCENT
  WIND   - DIRECTION AND SPEED IN MPH
  PRES   - MEAN SEA LEVEL PRESSURE IN INCHES OF HG
  WCI    - WIND CHILL INDEX
  VSB    - VISIBILITY IN MILES
  HX     - HEAT INDEX
  TC     - TEMPERATURE IN CELSIUS
  VRB    - VARIABLE WIND DIRECTION
  N/A    - NOT AVAILABLE




USA.gov is the U.S. government's official web portal to all federal, state and local government web resources and services.